Regional Weather Roundup
Issued by NWS Bismarck, ND

Home | Current Version | Previous Version | Text Only | Print | Product List | Glossary On
Versions: 1 2 3 4 5 6 7 8 9 10 11 12 13 14 15 16 17 18 19 20 21 22 23 24 25 26 27 28 29 30 31 32 33 34 35 36 37 38 39 40 41 42 43 44 45 46 47 48 49 50
387
ASUS43 KBIS 220710
RWRBIS

NWR BROADCAST TEXT
NATIONAL WEATHER SERVICE BISMARCK ND
200 AM CDT FRI SEP 22 2017

NOTE: "FAIR" INDICATES FEW OR NO CLOUDS BELOW 12,000 FEET WITH NO
SIGNIFICANT WEATHER AND/OR OBSTRUCTIONS TO VISIBILITY.


CITY           SKY/WX    TMP DP  RH WIND       PRES   REMARKS
WILLISTON      MOCLDY    50  38  63 N14       29.90F
MINOT          MOCLDY    51  39  63 NW14      29.87F
MINOT AFB      CLOUDY    50  39  65 N14       29.88S
BISMARCK       CLEAR     56  45  66 N13       29.79F
DICKINSON      PTCLDY    49  37  63 N12G21    29.83F
GARRISON         N/A     51  39  63 N12G20    29.83F
HETTINGER ARPT CLOUDY    51  37  58 N15       29.83R
JAMESTOWN      CLEAR     57  52  83 N9        29.72F
CARRINGTON     FAIR      54  52  94 NW7       29.81R
HAZEN          FAIR      54  39  58 NE7G14    29.85F
LINTON         FAIR      57  46  67 N13       29.76F
RUGBY          FAIR      52  50  93 NW8       29.85S
STANLEY        FAIR      48  39  71 N15       29.92F
TIOGA          FAIR      50  37  62 N13       29.91F
WATFORD CITY   DRIZZLE   46  41  81 NE7       29.87F
$$

CITY           SKY/WX    TMP DP  RH WIND       PRES   REMARKS
GRAND FORKS    PTCLDY    60  58  92 N7        29.73S
GRAND FORKS AF CLEAR     58  57  96 NE8       29.73F
DEVILS LAKE    CLEAR     55  51  86 N14       29.82R
FARGO          CLEAR     72  69  90 SE8       29.69F
CANDO          FAIR      52  52 100 N12       29.86R
CAVALIER       FAIR      57  52  82 N12G17    29.76F
GRAFTON        FAIR      57  54  88 N12       29.77F
GWINNER        FOG       61  61 100 CALM      29.70R VSB 3/4
LANGDON        FAIR      54  54 100 N8        29.83R
ROLLA          FAIR      50  50 100 N10       29.88R
WALHALLA       FAIR     N/A N/A N/A N6        29.78F
$$

CITY           SKY/WX    TMP DP  RH WIND       PRES   REMARKS
ABERDEEN       CLOUDY    68  66  93 E6        29.66S
MOBRIDGE       CLEAR     61  53  75 N13       29.67F
BUFFALO          N/A     52  35  52 N17       29.77R
GLASGOW        CLOUDY    48  32  53 NE13      29.97R
SIDNEY         LGT RAIN  50  40  68 N8        29.92R
WOLF POINT     LGT RAIN  51  34  52 N15       29.97R
GLENDIVE       MOCLDY    50  39  66 N7        29.93R
MILES CITY     CLOUDY    50  36  58 N8        29.89R
BAKER          CLOUDY    52  33  48 N13       29.87S
$$

CITY           SKY/WX    TMP DP  RH WIND       PRES   REMARKS
BILLINGS       CLOUDY    40  39  97 N13       29.94S FOG
GREAT FALLS    CLOUDY    41  29  62 NE15G23   30.02R
REGINA         CLOUDY    34  30  86 SW3       29.97R
ESTEVAN        MOCLDY    46  37  71 N12       29.95R
$$





USA.gov is the U.S. government's official web portal to all federal, state and local government web resources and services.